Kecskemet, Hungary

5:51 PM CEST on August 19, 2017 (GMT +0200)
Kecskemet

Weather History for LHKE - October, 2013

Change the Weather History Date:

Wednesday, October 16, 2013

  Actual Average (LHBP) Record (LHBP)
Temperature  
Mean Temperature 50 °F -  
Max Temperature 55 °F 58 °F 71 °F (2001)
Min Temperature 44 °F 39 °F 28 °F (2007)
Degree Days  
Heating Degree Days 16    
Moisture  
Dew Point 48 °F    
Average Humidity 91    
Maximum Humidity 100    
Minimum Humidity 87    
Precipitation  
Precipitation 0.00 in - - ()
Sea Level Pressure  
Sea Level Pressure 29.67 in    
Wind  
Wind Speed 7 mph ()    
Max Wind Speed 25 mph    
Max Gust Speed 40 mph    
Visibility 3.5 miles    
Events Rain    
Averages and records for this station are not official NWS values.
T = Trace of Precipitation, MM = Missing Value Source: Averaged Metar Reports

Daily Weather History Graph

Daily Weather History Graph

Search for Another Location

Airport or City:

Trip Planner

Search our weather history database for the weather conditions in past years. The results will help you decide how hot, cold, wet, or windy it might be!

Date:

Astronomy

Oct. 16, 2013 Rise Set
Actual Time 7:00 AM CEST 5:52 PM CEST
Civil Twilight 6:29 AM CEST 6:22 PM CEST
Nautical Twilight 5:54 AM CEST 6:57 PM CEST
Astronomical Twilight 5:19 AM CEST 7:33 PM CEST
Moon 4:28 PM CEST (10/16) 3:59 AM CEST (10/16)
Length of Visible Light 11h 53m
Length of Day
10h 51m
Waxing Gibbous, 92% of the Moon is Illuminated
Oct 16
Waxing Gibbous
Oct 19
Full
Oct 27
Last Quarter
Nov 3
New
Nov 10
First Quarter

Hourly Weather History & Observations

Time (CEST) Temp. Windchill Dew Point Humidity Pressure Visibility Wind Dir Wind Speed Gust Speed Precip Events Conditions
12:15 AM 44.6 °F - 42.8 °F 93% 29.80 in 1.9 mi ESE 2.2 mph - N/A   Scattered Clouds
12:45 AM 44.6 °F 42.3 °F 44.6 °F 100% 29.80 in 1.9 mi South 4.5 mph - N/A   Scattered Clouds
1:15 AM 46.4 °F - 44.6 °F 93% 29.80 in 2.5 mi South 2.2 mph - N/A   Mostly Cloudy
1:45 AM 46.4 °F 44.4 °F 44.6 °F 93% 29.80 in 2.5 mi SSE 4.5 mph - N/A   Mostly Cloudy
2:15 AM 46.4 °F - 44.6 °F 93% 29.77 in 2.5 mi East 2.2 mph - N/A   Mostly Cloudy
2:38 AM 46.4 °F - 44.6 °F 93% 29.77 in 3.1 mi Calm Calm - N/A   Mostly Cloudy
2:45 AM 46.4 °F - 44.6 °F 93% 29.77 in 3.1 mi Calm Calm - N/A   Mostly Cloudy
3:15 AM 48.2 °F - 46.4 °F 93% 29.74 in 3.1 mi ESE 2.2 mph - N/A   Overcast
3:45 AM - - - N/A% - 3.7 mi Variable 4.5 mph - N/A   Overcast
4:15 AM 50.0 °F - 48.2 °F 94% 29.74 in 3.1 mi SE 2.2 mph - N/A   Overcast
4:45 AM 50.0 °F - 48.2 °F 94% 29.71 in 3.7 mi ESE 2.2 mph - N/A   Unknown
5:15 AM 50.0 °F - 48.2 °F 94% 29.71 in 3.7 mi ESE 2.2 mph - N/A   Unknown
5:45 AM 50.0 °F - 48.2 °F 94% 29.68 in 3.7 mi Calm Calm - N/A   Unknown
6:05 AM 50.0 °F - 48.2 °F 94% 29.68 in 3.1 mi SE 2.2 mph - N/A   Overcast
6:15 AM 50.0 °F - 48.2 °F 94% 29.68 in 3.1 mi Calm Calm - N/A   Overcast
6:45 AM 51.8 °F - 48.2 °F 88% 29.68 in 3.1 mi SSE 2.2 mph - N/A   Overcast
7:04 AM - - - N/A% - 3.1 mi Variable 4.5 mph - N/A   Overcast
7:15 AM 51.8 °F - 50.0 °F 94% 29.68 in 3.1 mi South 2.2 mph - N/A Rain Light Rain
7:45 AM 51.8 °F - 50.0 °F 94% 29.68 in 3.1 mi SW 2.2 mph - N/A   Overcast
7:54 AM 51.8 °F - 50.0 °F 94% 29.68 in 2.5 mi SW 2.2 mph - N/A Rain Light Rain
8:15 AM 53.6 °F - 51.8 °F 94% 29.68 in 3.1 mi SW 2.2 mph - N/A Rain Light Rain
8:45 AM 53.6 °F - 51.8 °F 94% 29.65 in 4.3 mi SSW 2.2 mph - N/A   Overcast
9:15 AM 55.4 °F - 51.8 °F 88% 29.65 in 5.0 mi WSW 4.5 mph - N/A   Overcast
9:45 AM 55.4 °F - 51.8 °F 88% 29.65 in 3.7 mi WNW 6.7 mph - N/A   Overcast
9:54 AM - - - N/A% - 6.2 mi WNW 8.9 mph - N/A   Overcast
9:58 AM 53.6 °F - 51.8 °F 94% 29.65 in 1.9 mi WNW 8.9 mph - N/A   Overcast
10:15 AM 53.6 °F - 50.0 °F 88% 29.65 in 1.2 mi WNW 13.4 mph - N/A   Overcast
10:45 AM 51.8 °F - 50.0 °F 94% 29.65 in 1.2 mi NW 11.2 mph - N/A   Overcast
11:15 AM 51.8 °F - 50.0 °F 94% 29.65 in 1.2 mi NW 11.2 mph - N/A   Overcast
11:18 AM 51.8 °F - 50.0 °F 94% 29.65 in 1.2 mi NW 11.2 mph - N/A Rain Light Rain
11:32 AM 51.8 °F - 50.0 °F 94% 29.65 in 0.9 mi NW 11.2 mph - N/A Rain Light Rain
11:45 AM 51.8 °F - 50.0 °F 94% 29.65 in 0.9 mi NW 11.2 mph - N/A Rain Light Rain
12:15 PM 51.8 °F - 48.2 °F 88% 29.65 in 0.9 mi NW 13.4 mph - N/A Rain Light Rain
12:40 PM 50.0 °F - 48.2 °F 94% 29.65 in 1.9 mi WNW 13.4 mph - N/A Rain Rain
12:45 PM 50.0 °F - 48.2 °F 94% 29.65 in 2.5 mi WNW 15.7 mph - N/A Rain Rain
12:54 PM - - - N/A% - 6.2 mi NW 13.4 mph 24.6 mph N/A   Overcast
12:58 PM 50.0 °F - 48.2 °F 94% 29.65 in 3.1 mi WNW 13.4 mph - N/A Rain Light Rain
1:15 PM 50.0 °F - 46.4 °F 87% 29.65 in 2.5 mi WNW 17.9 mph - N/A Rain Rain
1:28 PM 50.0 °F - 46.4 °F 87% 29.65 in 2.5 mi WNW 17.9 mph - N/A Rain Rain
1:31 PM 50.0 °F - 46.4 °F 87% 29.65 in 2.5 mi WNW 15.7 mph 26.8 mph N/A Rain Rain
1:45 PM 50.0 °F - 46.4 °F 87% 29.65 in 3.1 mi WNW 20.1 mph - N/A Rain Rain
2:15 PM 50.0 °F - 46.4 °F 87% 29.65 in 6.2 mi NW 20.1 mph - N/A Rain Light Rain
2:45 PM 50.0 °F - 46.4 °F 87% 29.65 in 6.2 mi WNW 17.9 mph - N/A Rain Light Rain
3:15 PM 50.0 °F - 46.4 °F 87% 29.62 in 6.2 mi NW 17.9 mph - N/A Rain Light Rain
3:45 PM - - - N/A% - 6.2 mi NW 17.9 mph 29.1 mph N/A Rain Light Rain
4:15 PM 50.0 °F - 46.4 °F 87% 29.62 in 6.2 mi WNW 15.7 mph - N/A Rain Light Rain
4:30 PM 50.0 °F - 46.4 °F 87% 29.59 in 6.2 mi WNW 17.9 mph - N/A   Overcast
4:45 PM 50.0 °F - 46.4 °F 87% 29.59 in 6.2 mi WNW 17.9 mph - N/A Rain Light Rain
5:15 PM 50.0 °F - 46.4 °F 87% 29.59 in 6.2 mi WNW 17.9 mph - N/A   Overcast
5:45 PM 50.0 °F - 46.4 °F 87% 29.59 in 5.6 mi WNW 17.9 mph - N/A Rain Light Rain
6:15 PM 50.0 °F - 46.4 °F 87% 29.59 in 5.6 mi WNW 15.7 mph - N/A Rain Light Rain
6:45 PM - - - N/A% - 6.2 mi NNW 17.9 mph 29.1 mph N/A Rain Light Rain
7:15 PM 48.2 °F - 44.6 °F 87% 29.59 in 2.5 mi NW 15.7 mph - N/A Rain Light Rain
7:45 PM 48.2 °F - 46.4 °F 93% 29.59 in 2.5 mi NW 13.4 mph - N/A Rain Light Rain
8:15 PM 48.2 °F - 46.4 °F 93% 29.59 in 1.9 mi NNW 13.4 mph - N/A Rain Rain
8:25 PM 50.0 °F - 48.2 °F 94% 29.59 in 1.9 mi NNW 17.9 mph 29.1 mph N/A Rain Rain
8:45 PM 50.0 °F - 46.4 °F 87% 29.62 in 3.7 mi NNW 15.7 mph 31.3 mph N/A Rain Light Rain
9:15 PM 48.2 °F - 46.4 °F 93% 29.62 in 3.1 mi NNW 17.9 mph - N/A Rain Light Rain
9:45 PM - - - N/A% - 6.2 mi NNW 13.4 mph - N/A   Overcast
10:15 PM 50.0 °F - 46.4 °F 87% 29.65 in 3.1 mi NNW 24.6 mph 40.3 mph N/A Rain Light Rain
10:45 PM 50.0 °F - 46.4 °F 87% 29.65 in 3.1 mi North 15.7 mph 29.1 mph N/A Rain Light Rain
11:15 PM 50.0 °F - 46.4 °F 87% 29.68 in 1.9 mi NNW 15.7 mph 31.3 mph N/A Rain Rain
11:45 PM 50.0 °F - 46.4 °F 87% 29.68 in 6.2 mi North 11.2 mph - N/A Rain Light Rain